THY211 EDDL-EDDM

Flight info

Callsign THY211
Flight time N/A
Altitude 37000
Route DODEN1T/23L DODEN Y853 BOMBI T104 HAREM/N0476F270 T104 ROKIL
Aircraft CONC/H-SDFHIRWY/C

Departure

Time 2026-05-04 18:27
Airport Düsseldorf Airport (EDDL)

Arrival

Time N/A
Airport Munich Airport (EDDM)
Time Latitude Longitude Altitude Speed Heading
2026-05-04 17:41 51.27653 6.76147 159 ft 0 kts 79°
2026-05-04 18:11 51.27651 6.76131 159 ft 4 kts 80°
2026-05-04 18:11 51.27647 6.76089 159 ft 4 kts 81°
2026-05-04 18:12 51.27642 6.76052 159 ft 4 kts 66°
2026-05-04 18:12 51.27629 6.76031 159 ft 4 kts
2026-05-04 18:12 51.27610 6.76047 159 ft 4 kts 324°
2026-05-04 18:12 51.27591 6.76067 159 ft 1 kts 333°
2026-05-04 18:13 51.27590 6.76067 159 ft 0 kts 333°
2026-05-04 18:15 51.27602 6.76058 159 ft 4 kts 336°
2026-05-04 18:15 51.27648 6.76042 159 ft 9 kts 354°
2026-05-04 18:16 51.27729 6.76042 159 ft 14 kts
2026-05-04 18:16 51.27811 6.76043 159 ft 8 kts
2026-05-04 18:16 51.27883 6.76045 159 ft 13 kts
2026-05-04 18:17 51.28007 6.76049 159 ft 4 kts
2026-05-04 18:17 51.28026 6.76049 159 ft 0 kts 359°
2026-05-04 18:17 51.28040 6.76049 159 ft 0 kts 359°
2026-05-04 18:18 51.28052 6.76047 159 ft 4 kts 354°
2026-05-04 18:19 51.28104 6.76030 159 ft 0 kts 358°
2026-05-04 18:19 51.28116 6.76033 159 ft 4 kts 13°
2026-05-04 18:20 51.28153 6.76077 159 ft 9 kts 46°
2026-05-04 18:20 51.28204 6.76177 159 ft 14 kts 52°
2026-05-04 18:20 51.28275 6.76322 159 ft 19 kts 53°
2026-05-04 18:20 51.28365 6.76510 159 ft 23 kts 52°
2026-05-04 18:21 51.28461 6.76709 159 ft 15 kts 52°
2026-05-04 18:21 51.28536 6.76867 159 ft 20 kts 53°
2026-05-04 18:21 51.28630 6.77066 159 ft 24 kts 53°
2026-05-04 18:21 51.28740 6.77299 159 ft 26 kts 53°
2026-05-04 18:22 51.28829 6.77488 159 ft 22 kts 53°
2026-05-04 18:22 51.28928 6.77696 159 ft 25 kts 53°
2026-05-04 18:22 51.29039 6.77928 159 ft 27 kts 52°
2026-05-04 18:22 51.29140 6.78141 159 ft 17 kts 53°
2026-05-04 18:23 51.29209 6.78286 159 ft 17 kts 52°
2026-05-04 18:23 51.29291 6.78454 159 ft 21 kts 52°
2026-05-04 18:23 51.29365 6.78563 159 ft 12 kts 18°
2026-05-04 18:23 51.29410 6.78572 159 ft 0 kts 354°
2026-05-04 18:24 51.29411 6.78572 159 ft 1 kts 354°
2026-05-04 18:24 51.29433 6.78569 159 ft 6 kts 355°
2026-05-04 18:24 51.29488 6.78549 159 ft 11 kts 331°
2026-05-04 18:25 51.29502 6.78433 159 ft 14 kts 244°
2026-05-04 18:25 51.29491 6.78408 159 ft 0 kts 232°
2026-05-04 18:26 51.29483 6.78393 159 ft 4 kts 232°
2026-05-04 18:26 51.29307 6.78022 159 ft 102 kts 232°
2026-05-04 18:27 51.28622 6.76598 179 ft 216 kts 232°
2026-05-04 18:27 51.27649 6.74463 1005 ft 254 kts 233°
2026-05-04 18:27 51.26608 6.72168 1846 ft 256 kts 233°
2026-05-04 18:27 51.25553 6.69846 2535 ft 260 kts 234°
2026-05-04 18:28 51.24483 6.67492 3244 ft 263 kts 234°
2026-05-04 18:28 51.23401 6.65116 3969 ft 266 kts 234°
2026-05-04 18:28 51.22212 6.62551 4811 ft 316 kts 227°
2026-05-04 18:28 51.20290 6.60361 6236 ft 369 kts 200°
2026-05-04 18:29 51.17736 6.59524 7821 ft 381 kts 184°
2026-05-04 18:29 51.15036 6.59276 9053 ft 392 kts 183°
2026-05-04 18:29 51.12297 6.59107 9775 ft 398 kts 178°
2026-05-04 18:29 51.09565 6.59751 9984 ft 400 kts 159°
2026-05-04 18:30 51.05536 6.65514 10016 ft 400 kts 112°
2026-05-04 18:30 51.04968 6.69816 10340 ft 401 kts 88°
2026-05-04 18:30 51.05539 6.74122 10791 ft 403 kts 64°
2026-05-04 18:31 51.07033 6.77910 11325 ft 405 kts 54°
2026-05-04 18:31 51.08715 6.81510 11853 ft 408 kts 53°
2026-05-04 18:31 51.10424 6.85145 12379 ft 410 kts 57°
2026-05-04 18:31 51.11564 6.89293 12894 ft 413 kts 79°
2026-05-04 18:32 51.11893 6.93848 13430 ft 416 kts 86°
2026-05-04 18:32 51.12146 6.98472 13962 ft 429 kts 84°
2026-05-04 18:32 51.12499 7.03269 14496 ft 441 kts 83°
2026-05-04 18:32 51.12898 7.08253 15447 ft 461 kts 82°
2026-05-04 18:33 51.13326 7.13430 17003 ft 476 kts 82°
2026-05-04 18:33 51.13764 7.18650 18370 ft 474 kts 82°
2026-05-04 18:33 51.14205 7.23857 19314 ft 476 kts 82°
2026-05-04 18:33 51.14649 7.29091 19839 ft 478 kts 82°
2026-05-04 18:34 51.15095 7.34343 19981 ft 479 kts 83°
2026-05-04 18:34 51.15127 7.39634 19969 ft 479 kts 100°
2026-05-04 18:34 51.14074 7.44634 19973 ft 479 kts 120°
2026-05-04 18:34 51.12021 7.48793 19976 ft 479 kts 139°
2026-05-04 18:35 51.11980 7.48852 19976 ft 479 kts 139°